ロングモア彗星

77P/Longmore (2016)

English version
Home page
Updated on October 8, 2017

---------------------------------------------------------------------

・ プロフィール

・ 写真集

・ 軌道要素

Epoch 2016 July 31.0 TT = JDT 2457600.5
T 2016 May 13.63958 TT                                  MPCW
q   2.3377250            (2000.0)            P               Q
n   0.14332479     Peri.  196.72559     -0.85891367     +0.50117099
a   3.6162228      Node    14.80353     -0.40988605     -0.54944522
e   0.3535451      Incl.   24.34637     -0.30701911     -0.66853391
P   6.88
From 1538 observations 1981 Jan. 3-2016 May 18, mean residual 0".7.
     Nongravitational parameters A1 = +0.15, A2 = -0.0468.

・ 星図

・ 光度変化

        H = 14.0  G = 0.15               [    ,-450]  (              〜2015年 2月18日)
        m1 = 4.0 + 5 logΔ + 25.0 log r  [-450, 430]  (2015年 2月18日〜2017年 7月17日)
        H = 14.0  G = 0.15               [ 430,    ]  (2017年 7月17日〜              )

---------------------------------------------------------------------

軌道要素はM.P.E.C. 2016-K18に掲載されたものです。
星図はステラナビゲータ Ver.8 (アストロアーツ) で作成したものです。
光度グラフはComet for Windowsで作成したものです。

---------------------------------------------------------------------

Copyright(C) Seiichi Yoshida (comet@aerith.net). All rights reserved.